Year,Month,Day,Hour,Minute,Value (Times are PST for windspeed in km/hr)
2017,05,14,00,00,3.70
2017,05,14,00,01,3.40
2017,05,14,00,02,4.10
2017,05,14,00,03,3.00
2017,05,14,00,04,3.00
2017,05,14,00,05,2.00
2017,05,14,00,06,1.70
2017,05,14,00,07,2.40
2017,05,14,00,08,3.00
2017,05,14,00,09,3.20
2017,05,14,00,10,2.40
2017,05,14,00,11,3.30
2017,05,14,00,12,2.90
2017,05,14,00,13,2.90
2017,05,14,00,14,2.70
2017,05,14,00,15,1.60
2017,05,14,00,16,4.00
2017,05,14,00,17,3.50
2017,05,14,00,18,1.90
2017,05,14,00,19,1.70
2017,05,14,00,20,2.40
2017,05,14,00,21,2.90
2017,05,14,00,22,1.70
2017,05,14,00,23,1.70
2017,05,14,00,24,1.60
2017,05,14,00,25,1.20
2017,05,14,00,26,1.70
2017,05,14,00,27,1.10
2017,05,14,00,28,1.50
2017,05,14,00,29,1.80
2017,05,14,00,30,1.50
2017,05,14,00,31,2.00
2017,05,14,00,32,2.00
2017,05,14,00,33,2.30
2017,05,14,00,34,1.80
2017,05,14,00,35,2.30
2017,05,14,00,36,3.10
2017,05,14,00,37,1.90
2017,05,14,00,38,1.40
2017,05,14,00,39,5.20
2017,05,14,00,40,4.10
2017,05,14,00,41,4.60
2017,05,14,00,42,3.90
2017,05,14,00,43,4.70
2017,05,14,00,44,4.30
2017,05,14,00,45,4.00
2017,05,14,00,46,6.90
2017,05,14,00,47,5.50
2017,05,14,00,48,5.10
2017,05,14,00,49,5.20
2017,05,14,00,50,5.10
2017,05,14,00,51,5.10
2017,05,14,00,52,3.70
2017,05,14,00,53,5.10
2017,05,14,00,54,4.50
2017,05,14,00,55,8.20
2017,05,14,00,56,6.00
2017,05,14,00,57,5.00
2017,05,14,00,58,3.40
2017,05,14,00,59,3.90
2017,05,14,01,00,3.20
2017,05,14,01,01,1.90
2017,05,14,01,02,3.30
2017,05,14,01,03,3.50
2017,05,14,01,04,3.60
2017,05,14,01,05,3.30
2017,05,14,01,06,3.00
2017,05,14,01,07,2.50
2017,05,14,01,08,2.60
2017,05,14,01,09,3.50
2017,05,14,01,10,2.40
2017,05,14,01,11,3.60
2017,05,14,01,12,2.60
2017,05,14,01,13,3.30
2017,05,14,01,14,5.00
2017,05,14,01,15,3.70
2017,05,14,01,16,3.10
2017,05,14,01,17,2.90
2017,05,14,01,18,3.30
2017,05,14,01,19,2.10
2017,05,14,01,20,2.90
2017,05,14,01,21,3.30
2017,05,14,01,22,4.20
2017,05,14,01,23,3.30
2017,05,14,01,24,3.10
2017,05,14,01,25,2.80
2017,05,14,01,26,4.00
2017,05,14,01,27,3.60
2017,05,14,01,28,3.90
2017,05,14,01,29,3.30
2017,05,14,01,30,3.60
2017,05,14,01,31,5.20
2017,05,14,01,32,3.80
2017,05,14,01,33,4.30
2017,05,14,01,34,3.80
2017,05,14,01,35,4.00
2017,05,14,01,36,3.90
2017,05,14,01,37,4.80
2017,05,14,01,38,2.70
2017,05,14,01,39,2.90
2017,05,14,01,40,4.30
2017,05,14,01,41,5.10
2017,05,14,01,42,4.20
2017,05,14,01,43,4.00
2017,05,14,01,44,3.20
2017,05,14,01,45,3.00
2017,05,14,01,46,4.00
2017,05,14,01,47,3.90
2017,05,14,01,48,3.10
2017,05,14,01,49,3.10
2017,05,14,01,50,3.40
2017,05,14,01,51,4.00
2017,05,14,01,52,2.20
2017,05,14,01,53,3.10
2017,05,14,01,54,2.70
2017,05,14,01,55,2.40
2017,05,14,01,56,2.60
2017,05,14,01,57,4.30
2017,05,14,01,58,2.50
2017,05,14,01,59,3.20
2017,05,14,02,00,1.40
2017,05,14,02,01,2.40
2017,05,14,02,02,4.10
2017,05,14,02,03,3.60
2017,05,14,02,04,3.70
2017,05,14,02,05,3.40
2017,05,14,02,06,3.30
2017,05,14,02,07,2.60
2017,05,14,02,08,1.70
2017,05,14,02,09,3.20
2017,05,14,02,10,1.90
2017,05,14,02,11,2.90
2017,05,14,02,12,1.00
2017,05,14,02,13,0.80
2017,05,14,02,14,0.60
2017,05,14,02,15,0.00
2017,05,14,02,16,0.20
2017,05,14,02,17,1.90
2017,05,14,02,18,0.70
2017,05,14,02,19,1.60
2017,05,14,02,20,2.70
2017,05,14,02,21,4.00
2017,05,14,02,22,3.40
2017,05,14,02,23,3.80
2017,05,14,02,24,3.10
2017,05,14,02,25,2.10
2017,05,14,02,26,3.20
2017,05,14,02,27,3.90
2017,05,14,02,28,3.40
2017,05,14,02,29,3.30
2017,05,14,02,30,3.40
2017,05,14,02,31,2.70
2017,05,14,02,32,1.40
2017,05,14,02,33,2.80
2017,05,14,02,34,3.10
2017,05,14,02,35,1.70
2017,05,14,02,36,1.10
2017,05,14,02,37,2.40
2017,05,14,02,38,2.10
2017,05,14,02,39,2.70
2017,05,14,02,40,2.30
2017,05,14,02,41,1.90
2017,05,14,02,42,1.10
2017,05,14,02,43,1.20
2017,05,14,02,44,2.40
2017,05,14,02,45,1.10
2017,05,14,02,46,0.70
2017,05,14,02,47,2.90
2017,05,14,02,48,4.10
2017,05,14,02,49,2.60
2017,05,14,02,50,3.00
2017,05,14,02,51,3.00
2017,05,14,02,52,2.00
2017,05,14,02,53,0.90
2017,05,14,02,54,0.50
2017,05,14,02,55,1.10
2017,05,14,02,56,3.50
2017,05,14,02,57,3.60
2017,05,14,02,58,3.10
2017,05,14,02,59,2.60
2017,05,14,03,00,2.10
2017,05,14,03,01,3.40
2017,05,14,03,02,4.20
2017,05,14,03,03,3.70
2017,05,14,03,04,4.60
2017,05,14,03,05,5.70
2017,05,14,03,06,5.30
2017,05,14,03,07,5.50
2017,05,14,03,08,6.60
2017,05,14,03,09,6.20
2017,05,14,03,10,7.60
2017,05,14,03,11,5.90
2017,05,14,03,12,6.10
2017,05,14,03,13,5.20
2017,05,14,03,14,4.90
2017,05,14,03,15,5.40
2017,05,14,03,16,6.70
2017,05,14,03,17,4.90
2017,05,14,03,18,4.20
2017,05,14,03,19,4.80
2017,05,14,03,20,5.10
2017,05,14,03,21,3.70
2017,05,14,03,22,4.90
2017,05,14,03,23,4.70
2017,05,14,03,24,4.20
2017,05,14,03,25,3.70
2017,05,14,03,26,3.70
2017,05,14,03,27,3.90
2017,05,14,03,28,3.60
2017,05,14,03,29,3.90
2017,05,14,03,30,4.20
2017,05,14,03,31,4.20
2017,05,14,03,32,4.50
2017,05,14,03,33,4.40
2017,05,14,03,34,3.90
2017,05,14,03,35,4.00
2017,05,14,03,36,5.70
2017,05,14,03,37,4.60
2017,05,14,03,38,3.90
2017,05,14,03,39,4.20
2017,05,14,03,40,5.40
2017,05,14,03,41,4.60
2017,05,14,03,42,4.30
2017,05,14,03,43,4.90
2017,05,14,03,44,3.70
2017,05,14,03,45,5.80
2017,05,14,03,46,3.60
2017,05,14,03,47,5.00
2017,05,14,03,48,4.20
2017,05,14,03,49,3.60
2017,05,14,03,50,2.70
2017,05,14,03,51,3.10
2017,05,14,03,52,2.30
2017,05,14,03,53,2.60
2017,05,14,03,54,2.30
2017,05,14,03,55,2.20
2017,05,14,03,56,2.20
2017,05,14,03,57,2.70
2017,05,14,03,58,2.10
2017,05,14,03,59,1.60
2017,05,14,04,00,1.50
2017,05,14,04,01,1.30
2017,05,14,04,02,0.50
2017,05,14,04,03,0.50
2017,05,14,04,04,0.90
2017,05,14,04,05,0.10
2017,05,14,04,06,0.00
2017,05,14,04,07,0.00
2017,05,14,04,08,0.00
2017,05,14,04,09,0.00
2017,05,14,04,10,0.10
2017,05,14,04,11,0.80
2017,05,14,04,12,1.60
2017,05,14,04,13,2.10
2017,05,14,04,14,1.60
2017,05,14,04,15,1.90
2017,05,14,04,16,2.40
2017,05,14,04,17,2.60
2017,05,14,04,18,2.00
2017,05,14,04,19,2.10
2017,05,14,04,20,2.70
2017,05,14,04,21,2.70
2017,05,14,04,22,2.90
2017,05,14,04,23,3.10
2017,05,14,04,24,3.00
2017,05,14,04,25,3.00
2017,05,14,04,26,2.90
2017,05,14,04,27,3.00
2017,05,14,04,28,3.00
2017,05,14,04,29,2.30
2017,05,14,04,30,2.90
2017,05,14,04,31,2.60
2017,05,14,04,32,2.80
2017,05,14,04,33,3.00
2017,05,14,04,34,3.10
2017,05,14,04,35,3.10
2017,05,14,04,36,3.20
2017,05,14,04,37,2.40
2017,05,14,04,38,2.20
2017,05,14,04,39,2.10
2017,05,14,04,40,2.40
2017,05,14,04,41,2.70
2017,05,14,04,42,1.70
2017,05,14,04,43,1.80
2017,05,14,04,44,2.40
2017,05,14,04,45,1.50
2017,05,14,04,46,1.50
2017,05,14,04,47,1.30
2017,05,14,04,48,1.50
2017,05,14,04,49,2.00
2017,05,14,04,50,2.00
2017,05,14,04,51,1.30
2017,05,14,04,52,2.60
2017,05,14,04,53,2.30
2017,05,14,04,54,1.10
2017,05,14,04,55,0.90
2017,05,14,04,56,0.90
2017,05,14,04,57,1.60
2017,05,14,04,58,1.50
2017,05,14,04,59,1.60
2017,05,14,05,00,0.80
2017,05,14,05,01,2.00
2017,05,14,05,02,1.70
2017,05,14,05,03,2.40
2017,05,14,05,04,2.40
2017,05,14,05,05,1.80
2017,05,14,05,06,1.30
2017,05,14,05,07,1.60
2017,05,14,05,08,1.60
2017,05,14,05,09,1.20
2017,05,14,05,10,1.60
2017,05,14,05,11,2.60
2017,05,14,05,12,2.40
2017,05,14,05,13,2.00
2017,05,14,05,14,2.20
2017,05,14,05,15,2.30
2017,05,14,05,16,1.90
2017,05,14,05,17,1.90
2017,05,14,05,18,2.30
2017,05,14,05,19,3.00
2017,05,14,05,20,2.70
2017,05,14,05,21,3.30
2017,05,14,05,22,3.30
2017,05,14,05,23,3.10
2017,05,14,05,24,2.40
2017,05,14,05,25,3.10
2017,05,14,05,26,2.90
2017,05,14,05,27,2.60
2017,05,14,05,28,3.00
2017,05,14,05,29,3.40
2017,05,14,05,30,3.30
2017,05,14,05,31,2.70
2017,05,14,05,32,3.10
2017,05,14,05,33,2.60
2017,05,14,05,34,3.90
2017,05,14,05,35,3.70
2017,05,14,05,36,3.30
2017,05,14,05,37,4.20
2017,05,14,05,38,4.20
2017,05,14,05,39,3.10
2017,05,14,05,40,3.90
2017,05,14,05,41,4.00
2017,05,14,05,42,4.10
2017,05,14,05,43,4.60
2017,05,14,05,44,3.90
2017,05,14,05,45,4.20
2017,05,14,05,46,3.40
2017,05,14,05,47,4.20
2017,05,14,05,48,3.70
2017,05,14,05,49,3.80
2017,05,14,05,50,3.80
2017,05,14,05,51,3.90
2017,05,14,05,52,3.00
2017,05,14,05,53,2.30
2017,05,14,05,54,3.00
2017,05,14,05,55,2.20
2017,05,14,05,56,2.10
2017,05,14,05,57,3.10
2017,05,14,05,58,2.90
2017,05,14,05,59,2.70
2017,05,14,06,00,2.90
2017,05,14,06,01,2.90
2017,05,14,06,02,3.70
2017,05,14,06,03,3.80
2017,05,14,06,04,3.40
2017,05,14,06,05,3.20
2017,05,14,06,06,2.80
2017,05,14,06,07,2.70
2017,05,14,06,08,3.20
2017,05,14,06,09,2.90
2017,05,14,06,10,3.30
2017,05,14,06,11,1.40
2017,05,14,06,12,1.90
2017,05,14,06,13,2.40
2017,05,14,06,14,1.80
2017,05,14,06,15,1.60
2017,05,14,06,16,0.10
2017,05,14,06,17,0.80
2017,05,14,06,18,1.90
2017,05,14,06,19,1.90
2017,05,14,06,20,1.90
2017,05,14,06,21,2.00
2017,05,14,06,22,2.10
2017,05,14,06,23,1.90
2017,05,14,06,24,2.10
2017,05,14,06,25,2.10
2017,05,14,06,26,1.90
2017,05,14,06,27,1.90
2017,05,14,06,28,1.70
2017,05,14,06,29,1.70
2017,05,14,06,30,2.30
2017,05,14,06,31,3.50
2017,05,14,06,32,3.00
2017,05,14,06,33,1.90
2017,05,14,06,34,2.60
2017,05,14,06,35,3.30
2017,05,14,06,36,4.30
2017,05,14,06,37,3.30
2017,05,14,06,38,2.40
2017,05,14,06,39,3.00
2017,05,14,06,40,3.40
2017,05,14,06,41,2.60
2017,05,14,06,42,3.10
2017,05,14,06,43,2.70
2017,05,14,06,44,1.30
2017,05,14,06,45,0.60
2017,05,14,06,46,1.40
2017,05,14,06,47,1.10
2017,05,14,06,48,0.20
2017,05,14,06,49,0.10
2017,05,14,06,50,0.00
2017,05,14,06,51,0.50
2017,05,14,06,52,0.50
2017,05,14,06,53,0.80
2017,05,14,06,54,1.10
2017,05,14,06,55,0.40
2017,05,14,06,56,0.50
2017,05,14,06,57,0.30
2017,05,14,06,58,1.70
2017,05,14,06,59,1.40
2017,05,14,07,00,2.30
2017,05,14,07,01,3.00
2017,05,14,07,02,2.30
2017,05,14,07,03,2.40
2017,05,14,07,04,2.30
2017,05,14,07,05,2.00
2017,05,14,07,06,1.40
2017,05,14,07,07,0.70
2017,05,14,07,08,0.10
2017,05,14,07,09,0.20
2017,05,14,07,10,0.00
2017,05,14,07,11,0.20
2017,05,14,07,12,0.00
2017,05,14,07,13,1.50
2017,05,14,07,14,1.60
2017,05,14,07,15,0.80
2017,05,14,07,16,2.60
2017,05,14,07,17,3.30
2017,05,14,07,18,3.30
2017,05,14,07,19,3.20
2017,05,14,07,20,3.30
2017,05,14,07,21,4.20
2017,05,14,07,22,3.10
2017,05,14,07,23,2.60
2017,05,14,07,24,3.50
2017,05,14,07,25,3.60
2017,05,14,07,26,3.10
2017,05,14,07,27,2.80
2017,05,14,07,28,2.40
2017,05,14,07,29,3.20
2017,05,14,07,30,1.70
2017,05,14,07,31,3.00
2017,05,14,07,32,1.90
2017,05,14,07,33,2.50
2017,05,14,07,34,1.70
2017,05,14,07,35,2.80
2017,05,14,07,36,1.80
2017,05,14,07,37,2.00
2017,05,14,07,38,2.00
2017,05,14,07,39,2.50
2017,05,14,07,40,2.40
2017,05,14,07,41,0.20
2017,05,14,07,42,1.90
2017,05,14,07,43,1.00
2017,05,14,07,44,0.80
2017,05,14,07,45,1.60
2017,05,14,07,46,1.10
2017,05,14,07,47,2.40
2017,05,14,07,48,2.40
2017,05,14,07,49,3.30
2017,05,14,07,50,2.30
2017,05,14,07,51,1.40
2017,05,14,07,52,1.00
2017,05,14,07,53,2.60
2017,05,14,07,54,1.80
2017,05,14,07,55,2.90
2017,05,14,07,56,2.80
2017,05,14,07,57,1.90
2017,05,14,07,58,3.30
2017,05,14,07,59,3.60
2017,05,14,08,00,3.80
2017,05,14,08,01,4.10
2017,05,14,08,02,5.30
2017,05,14,08,03,4.90
2017,05,14,08,04,3.20
2017,05,14,08,05,4.00
2017,05,14,08,06,5.70
2017,05,14,08,07,3.40
2017,05,14,08,08,3.60
2017,05,14,08,09,3.60
2017,05,14,08,10,5.10
2017,05,14,08,11,5.70
2017,05,14,08,12,6.10
2017,05,14,08,13,4.80
2017,05,14,08,14,3.50
2017,05,14,08,15,3.40
2017,05,14,08,16,5.60
2017,05,14,08,17,4.20
2017,05,14,08,18,4.10
2017,05,14,08,19,4.20
2017,05,14,08,20,3.70
2017,05,14,08,21,3.30
2017,05,14,08,22,2.50
2017,05,14,08,23,2.00
2017,05,14,08,24,4.50
2017,05,14,08,25,4.90
2017,05,14,08,26,4.80
2017,05,14,08,27,3.20
2017,05,14,08,28,2.50
2017,05,14,08,29,4.50
2017,05,14,08,30,2.80
2017,05,14,08,31,2.00
2017,05,14,08,32,4.10
2017,05,14,08,33,3.90
2017,05,14,08,34,5.80
2017,05,14,08,35,6.00
2017,05,14,08,36,4.40
2017,05,14,08,37,6.30
2017,05,14,08,38,4.90
2017,05,14,08,39,4.50
2017,05,14,08,40,4.60
2017,05,14,08,41,5.00
2017,05,14,08,42,4.30
2017,05,14,08,43,3.30
2017,05,14,08,44,4.90
2017,05,14,08,45,4.20
2017,05,14,08,46,3.90
2017,05,14,08,47,3.30
2017,05,14,08,48,4.00
2017,05,14,08,49,5.40
2017,05,14,08,50,3.40
2017,05,14,08,51,4.30
2017,05,14,08,52,4.50
2017,05,14,08,53,3.90
2017,05,14,08,54,3.70
2017,05,14,08,55,3.60
2017,05,14,08,56,3.90
2017,05,14,08,57,1.70
2017,05,14,08,58,2.70
2017,05,14,08,59,5.50
2017,05,14,09,00,5.50
2017,05,14,09,01,5.30
2017,05,14,09,02,4.70
2017,05,14,09,03,5.70
2017,05,14,09,04,3.60
2017,05,14,09,05,4.50
2017,05,14,09,06,3.60
2017,05,14,09,07,0.20
2017,05,14,09,08,0.70
2017,05,14,09,09,5.70
2017,05,14,09,10,4.50
2017,05,14,09,11,2.10
2017,05,14,09,12,1.70
2017,05,14,09,13,3.40
2017,05,14,09,14,3.50
2017,05,14,09,15,1.20
2017,05,14,09,16,1.80
2017,05,14,09,17,4.90
2017,05,14,09,18,4.20
2017,05,14,09,19,4.90
2017,05,14,09,20,4.70
2017,05,14,09,21,5.30
2017,05,14,09,22,3.80
2017,05,14,09,23,2.40
2017,05,14,09,24,3.50
2017,05,14,09,25,3.60
2017,05,14,09,26,2.90
2017,05,14,09,27,4.40
2017,05,14,09,28,2.60
2017,05,14,09,29,3.10
2017,05,14,09,30,3.40
2017,05,14,09,31,4.90
2017,05,14,09,32,4.90
2017,05,14,09,33,2.50
2017,05,14,09,34,3.10
2017,05,14,09,35,4.00
2017,05,14,09,36,2.70
2017,05,14,09,37,4.00
2017,05,14,09,38,3.00
2017,05,14,09,39,3.20
2017,05,14,09,40,3.10
2017,05,14,09,41,3.00
2017,05,14,09,42,1.50
2017,05,14,09,43,3.00
2017,05,14,09,44,2.90
2017,05,14,09,45,3.10
2017,05,14,09,46,1.40
2017,05,14,09,47,0.50
2017,05,14,09,48,2.70
2017,05,14,09,49,4.90
2017,05,14,09,50,1.90
2017,05,14,09,51,1.00
2017,05,14,09,52,1.60
2017,05,14,09,53,4.30
2017,05,14,09,54,5.10
2017,05,14,09,55,5.70
2017,05,14,09,56,5.40
2017,05,14,09,57,3.40
2017,05,14,09,58,3.70
2017,05,14,09,59,4.20
2017,05,14,10,00,4.30
2017,05,14,10,01,3.60
2017,05,14,10,02,3.10
2017,05,14,10,03,4.20
2017,05,14,10,04,4.60
2017,05,14,10,05,5.30
2017,05,14,10,06,6.30
2017,05,14,10,07,6.20
2017,05,14,10,08,8.00
2017,05,14,10,09,6.30
2017,05,14,10,10,3.40
2017,05,14,10,11,3.80
2017,05,14,10,12,5.60
2017,05,14,10,13,2.90
2017,05,14,10,14,2.00
2017,05,14,10,15,0.50
2017,05,14,10,16,1.40
2017,05,14,10,17,4.90
2017,05,14,10,18,3.00
2017,05,14,10,19,3.80
2017,05,14,10,20,4.20
2017,05,14,10,21,7.00
2017,05,14,10,22,8.60
2017,05,14,10,23,7.20
2017,05,14,10,24,11.60
2017,05,14,10,25,7.40
2017,05,14,10,26,9.10
2017,05,14,10,27,8.10
2017,05,14,10,28,11.30
2017,05,14,10,29,8.40
2017,05,14,10,30,8.60
2017,05,14,10,31,6.60
2017,05,14,10,32,7.10
2017,05,14,10,33,5.80
2017,05,14,10,34,11.60
2017,05,14,10,35,10.10
2017,05,14,10,36,9.20
2017,05,14,10,37,10.10
2017,05,14,10,38,10.90
2017,05,14,10,39,8.90
2017,05,14,10,40,5.80
2017,05,14,10,41,7.30
2017,05,14,10,42,3.70
2017,05,14,10,43,5.50
2017,05,14,10,44,12.00
2017,05,14,10,45,8.80
2017,05,14,10,46,8.20
2017,05,14,10,47,7.50
2017,05,14,10,48,6.60
2017,05,14,10,49,8.50
2017,05,14,10,50,10.40
2017,05,14,10,51,6.40
2017,05,14,10,52,4.00
2017,05,14,10,53,5.40
2017,05,14,10,54,5.20
2017,05,14,10,55,7.80
2017,05,14,10,56,10.60
2017,05,14,10,57,10.70
2017,05,14,10,58,5.50
2017,05,14,10,59,5.60
2017,05,14,11,00,10.20
2017,05,14,11,01,8.10
2017,05,14,11,02,10.30
2017,05,14,11,03,5.40
2017,05,14,11,04,6.60
2017,05,14,11,05,5.70
2017,05,14,11,06,8.80
2017,05,14,11,07,6.60
2017,05,14,11,08,4.70
2017,05,14,11,09,5.10
2017,05,14,11,10,5.80
2017,05,14,11,11,6.90
2017,05,14,11,12,6.90
2017,05,14,11,13,5.50
2017,05,14,11,14,8.80
2017,05,14,11,15,6.60
2017,05,14,11,16,7.50
2017,05,14,11,17,9.20
2017,05,14,11,18,10.70
2017,05,14,11,19,7.40
2017,05,14,11,20,10.00
2017,05,14,11,21,10.70
2017,05,14,11,22,11.60
2017,05,14,11,23,12.90
2017,05,14,11,24,8.10
2017,05,14,11,25,11.00
2017,05,14,11,26,8.00
2017,05,14,11,27,13.50
2017,05,14,11,28,13.40
2017,05,14,11,29,13.80
2017,05,14,11,30,14.60
2017,05,14,11,31,10.20
2017,05,14,11,32,10.90
2017,05,14,11,33,9.50
2017,05,14,11,34,12.90
2017,05,14,11,35,15.60
2017,05,14,11,36,15.60
2017,05,14,11,37,16.10
2017,05,14,11,38,15.40
2017,05,14,11,39,17.50
2017,05,14,11,40,17.30
2017,05,14,11,41,14.10
2017,05,14,11,42,13.50
2017,05,14,11,43,16.60
2017,05,14,11,44,14.90
2017,05,14,11,45,17.30
2017,05,14,11,46,16.10
2017,05,14,11,47,14.10
2017,05,14,11,48,11.90
2017,05,14,11,49,11.30
2017,05,14,11,50,16.50
2017,05,14,11,51,13.60
2017,05,14,11,52,12.90
2017,05,14,11,53,11.90
2017,05,14,11,54,12.10
2017,05,14,11,55,15.20
2017,05,14,11,56,14.40
2017,05,14,11,57,12.10
2017,05,14,11,58,13.10
2017,05,14,11,59,9.50
2017,05,14,12,00,11.20
2017,05,14,12,01,14.00
2017,05,14,12,02,15.10
2017,05,14,12,03,14.90
2017,05,14,12,04,13.50
2017,05,14,12,05,11.80
2017,05,14,12,06,10.60
2017,05,14,12,07,9.10
2017,05,14,12,08,9.90
2017,05,14,12,09,8.80
2017,05,14,12,10,13.20
2017,05,14,12,11,13.90
2017,05,14,12,12,12.80
2017,05,14,12,13,10.90
2017,05,14,12,14,9.60
2017,05,14,12,15,11.40
2017,05,14,12,16,8.60
2017,05,14,12,17,9.00
2017,05,14,12,18,10.70
2017,05,14,12,19,13.70
2017,05,14,12,20,11.90
2017,05,14,12,21,16.30
2017,05,14,12,22,12.60
2017,05,14,12,23,11.00
2017,05,14,12,24,14.70
2017,05,14,12,25,14.40
2017,05,14,12,26,10.10
2017,05,14,12,27,13.80
2017,05,14,12,28,14.90
2017,05,14,12,29,14.30
2017,05,14,12,30,15.40
2017,05,14,12,31,17.60
2017,05,14,12,32,15.30
2017,05,14,12,33,15.70
2017,05,14,12,34,12.80
2017,05,14,12,35,12.20
2017,05,14,12,36,13.90
2017,05,14,12,37,11.30
2017,05,14,12,38,14.50
2017,05,14,12,39,14.40
2017,05,14,12,40,14.20
2017,05,14,12,41,14.50
2017,05,14,12,42,16.20
2017,05,14,12,43,14.90
2017,05,14,12,44,10.30
2017,05,14,12,45,14.50
2017,05,14,12,46,14.00
2017,05,14,12,47,15.70
2017,05,14,12,48,16.00
2017,05,14,12,49,11.80
2017,05,14,12,50,17.00
2017,05,14,12,51,17.90
2017,05,14,12,52,16.70
2017,05,14,12,53,15.30
2017,05,14,12,54,17.20
2017,05,14,12,55,15.60
2017,05,14,12,56,15.90
2017,05,14,12,57,16.50
2017,05,14,12,58,11.60
2017,05,14,12,59,12.00
2017,05,14,13,00,17.90
2017,05,14,13,01,15.50
2017,05,14,13,02,16.70
2017,05,14,13,03,19.30
2017,05,14,13,04,17.50
2017,05,14,13,05,14.20
2017,05,14,13,06,16.80
2017,05,14,13,07,14.30
2017,05,14,13,08,16.50
2017,05,14,13,09,18.80
2017,05,14,13,10,18.10
2017,05,14,13,11,12.80
2017,05,14,13,12,17.40
2017,05,14,13,13,15.60
2017,05,14,13,14,15.30
2017,05,14,13,15,14.40
2017,05,14,13,16,16.30
2017,05,14,13,17,17.50
2017,05,14,13,18,18.70
2017,05,14,13,19,14.80
2017,05,14,13,20,13.90
2017,05,14,13,21,12.50
2017,05,14,13,22,11.60
2017,05,14,13,23,17.20
2017,05,14,13,24,17.00
2017,05,14,13,25,12.30
2017,05,14,13,26,9.70
2017,05,14,13,27,10.60
2017,05,14,13,28,12.70
2017,05,14,13,29,13.30
2017,05,14,13,30,15.70
2017,05,14,13,31,12.20
2017,05,14,13,32,12.70
2017,05,14,13,33,14.70
2017,05,14,13,34,12.60
2017,05,14,13,35,7.90
2017,05,14,13,36,12.90
2017,05,14,13,37,13.30
2017,05,14,13,38,15.90
2017,05,14,13,39,14.70
2017,05,14,13,40,15.70
2017,05,14,13,41,17.70
2017,05,14,13,42,18.70
2017,05,14,13,43,15.30
2017,05,14,13,44,14.50
2017,05,14,13,45,17.50
2017,05,14,13,46,13.20
2017,05,14,13,47,13.20
2017,05,14,13,48,14.40
2017,05,14,13,49,13.10
2017,05,14,13,50,15.40
2017,05,14,13,51,14.70
2017,05,14,13,52,9.60
2017,05,14,13,53,11.90
2017,05,14,13,54,12.80
2017,05,14,13,55,11.60
2017,05,14,13,56,13.90
2017,05,14,13,57,13.80
2017,05,14,13,58,11.90
2017,05,14,13,59,13.30
2017,05,14,14,00,13.80
2017,05,14,14,01,11.50
2017,05,14,14,02,9.70
2017,05,14,14,03,13.40
2017,05,14,14,04,14.00
2017,05,14,14,05,6.80
2017,05,14,14,06,8.00
2017,05,14,14,07,12.90
2017,05,14,14,08,10.90
2017,05,14,14,09,9.20
2017,05,14,14,10,12.90
2017,05,14,14,11,8.60
2017,05,14,14,12,5.70
2017,05,14,14,13,9.80
2017,05,14,14,14,12.00
2017,05,14,14,15,11.60
2017,05,14,14,16,6.00
2017,05,14,14,17,8.20
2017,05,14,14,18,10.30
2017,05,14,14,19,10.00
2017,05,14,14,20,9.20
2017,05,14,14,21,6.80
2017,05,14,14,22,7.00
2017,05,14,14,23,11.50
2017,05,14,14,24,7.30
2017,05,14,14,25,5.90
2017,05,14,14,26,5.20
2017,05,14,14,27,4.80
2017,05,14,14,28,7.50
2017,05,14,14,29,5.00
2017,05,14,14,30,3.60
2017,05,14,14,31,5.60
2017,05,14,14,32,4.50
2017,05,14,14,33,6.60
2017,05,14,14,34,6.70
2017,05,14,14,35,5.00
2017,05,14,14,36,4.90
2017,05,14,14,37,7.30
2017,05,14,14,38,6.40
2017,05,14,14,39,5.50
2017,05,14,14,40,5.20
2017,05,14,14,41,5.10
2017,05,14,14,42,6.10
2017,05,14,14,43,2.20
2017,05,14,14,44,2.20
2017,05,14,14,45,5.20
2017,05,14,14,46,2.30
2017,05,14,14,47,1.70
2017,05,14,14,48,3.30
2017,05,14,14,49,2.70
2017,05,14,14,50,3.60
2017,05,14,14,51,3.60
2017,05,14,14,52,3.70
2017,05,14,14,53,1.60
2017,05,14,14,54,3.10
2017,05,14,14,55,1.10
2017,05,14,14,56,2.90
2017,05,14,14,57,3.90
2017,05,14,14,58,2.60
2017,05,14,14,59,5.60
2017,05,14,15,00,5.90
2017,05,14,15,01,6.00
2017,05,14,15,02,5.70
2017,05,14,15,03,4.60
2017,05,14,15,04,5.90
2017,05,14,15,05,5.00
2017,05,14,15,06,6.20
2017,05,14,15,07,8.90
2017,05,14,15,08,6.40
2017,05,14,15,09,4.00
2017,05,14,15,10,3.90
2017,05,14,15,11,4.00
2017,05,14,15,12,4.70
2017,05,14,15,13,2.50
2017,05,14,15,14,4.10
2017,05,14,15,15,4.70
2017,05,14,15,16,2.70
2017,05,14,15,17,1.90
2017,05,14,15,18,1.80
2017,05,14,15,19,3.00
2017,05,14,15,20,5.00
2017,05,14,15,21,7.90
2017,05,14,15,22,9.70
2017,05,14,15,23,10.40
2017,05,14,15,24,10.50
2017,05,14,15,25,8.10
2017,05,14,15,26,11.80
2017,05,14,15,27,13.00
2017,05,14,15,28,12.80
2017,05,14,15,29,12.80
2017,05,14,15,30,6.80
2017,05,14,15,31,9.10
2017,05,14,15,32,12.20
2017,05,14,15,33,11.60
2017,05,14,15,34,12.80
2017,05,14,15,35,10.90
2017,05,14,15,36,12.70
2017,05,14,15,37,10.90
2017,05,14,15,38,11.00
2017,05,14,15,39,10.30
2017,05,14,15,40,10.80
2017,05,14,15,41,7.50
2017,05,14,15,42,7.80
2017,05,14,15,43,7.60
2017,05,14,15,44,10.60
2017,05,14,15,45,13.30
2017,05,14,15,46,9.50
2017,05,14,15,47,8.20
2017,05,14,15,48,10.30
2017,05,14,15,49,10.30
2017,05,14,15,50,12.80
2017,05,14,15,51,10.70
2017,05,14,15,52,9.00
2017,05,14,15,53,7.70
2017,05,14,15,54,13.40
2017,05,14,15,55,8.50
2017,05,14,15,56,8.00
2017,05,14,15,57,11.40
2017,05,14,15,58,11.00
2017,05,14,15,59,7.40
2017,05,14,16,00,11.50
2017,05,14,16,01,12.60
2017,05,14,16,02,9.40
2017,05,14,16,03,9.40
2017,05,14,16,04,9.80
2017,05,14,16,05,11.90
2017,05,14,16,06,5.70
2017,05,14,16,07,6.00
2017,05,14,16,08,11.10
2017,05,14,16,09,7.30
2017,05,14,16,10,7.90
2017,05,14,16,11,6.70
2017,05,14,16,12,11.20
2017,05,14,16,13,11.70
2017,05,14,16,14,11.40
2017,05,14,16,15,11.40
2017,05,14,16,16,11.10
2017,05,14,16,17,11.30
2017,05,14,16,18,11.80
2017,05,14,16,19,10.80
2017,05,14,16,20,11.30
2017,05,14,16,21,12.70
2017,05,14,16,22,10.50
2017,05,14,16,23,12.10
2017,05,14,16,24,9.90
2017,05,14,16,25,14.60
2017,05,14,16,26,15.00
2017,05,14,16,27,17.30
2017,05,14,16,28,14.70
2017,05,14,16,29,17.50
2017,05,14,16,30,11.30
2017,05,14,16,31,13.40
2017,05,14,16,32,14.60
2017,05,14,16,33,13.60
2017,05,14,16,34,13.50
2017,05,14,16,35,15.70
2017,05,14,16,36,13.70
2017,05,14,16,37,16.60
2017,05,14,16,38,14.20
2017,05,14,16,39,16.00
2017,05,14,16,40,11.10
2017,05,14,16,41,14.70
2017,05,14,16,42,12.50
2017,05,14,16,43,14.50
2017,05,14,16,44,7.50
2017,05,14,16,45,11.90
2017,05,14,16,46,11.90
2017,05,14,16,47,9.80
2017,05,14,16,48,11.40
2017,05,14,16,49,13.60
2017,05,14,16,50,14.70
2017,05,14,16,51,12.80
2017,05,14,16,52,14.30
2017,05,14,16,53,12.00
2017,05,14,16,54,13.20
2017,05,14,16,55,13.40
2017,05,14,16,56,12.00
2017,05,14,16,57,10.00
2017,05,14,16,58,9.60
2017,05,14,16,59,10.80
2017,05,14,17,00,13.00
2017,05,14,17,01,14.10
2017,05,14,17,02,12.20
2017,05,14,17,03,9.10
2017,05,14,17,04,9.00
2017,05,14,17,05,12.20
2017,05,14,17,06,15.50
2017,05,14,17,07,8.60
2017,05,14,17,08,11.50
2017,05,14,17,09,13.40
2017,05,14,17,10,11.90
2017,05,14,17,11,8.80
2017,05,14,17,12,12.20
2017,05,14,17,13,13.30
2017,05,14,17,14,12.20
2017,05,14,17,15,14.70
2017,05,14,17,16,14.50
2017,05,14,17,17,15.20
2017,05,14,17,18,13.50
2017,05,14,17,19,15.10
2017,05,14,17,20,14.50
2017,05,14,17,21,15.70
2017,05,14,17,22,14.50
2017,05,14,17,23,15.00
2017,05,14,17,24,9.90
2017,05,14,17,25,12.60
2017,05,14,17,26,11.70
2017,05,14,17,27,11.80
2017,05,14,17,28,11.40
2017,05,14,17,29,14.40
2017,05,14,17,30,17.80
2017,05,14,17,31,14.60
2017,05,14,17,32,15.20
2017,05,14,17,33,15.30
2017,05,14,17,34,15.70
2017,05,14,17,35,12.30
2017,05,14,17,36,9.40
2017,05,14,17,37,14.70
2017,05,14,17,38,15.10
2017,05,14,17,39,15.40
2017,05,14,17,40,13.80
2017,05,14,17,41,14.80
2017,05,14,17,42,13.80
2017,05,14,17,43,12.60
2017,05,14,17,44,13.30
2017,05,14,17,45,14.60
2017,05,14,17,46,13.40
2017,05,14,17,47,14.50
2017,05,14,17,48,13.40
2017,05,14,17,49,12.40
2017,05,14,17,50,12.80
2017,05,14,17,51,11.60
2017,05,14,17,52,12.00
2017,05,14,17,53,14.40